www.pogodaiklimat.ru

Погода и климат >> Архив погоды >> Россия >> Красноярский край >> Щетинкино


ПОГОДА в Щетинкино

  • Прогноз погоды в Щетинкино
  • Монитор погоды в Щетинкино

АРХИВ ПОГОДЫ в Щетинкино

Время (UTC), дата Ветер
(напр.,м/с)
 
Видим.   Явления Облачность Т
(С)
Тd
(С)
f
(%)
Тe
(С)
Тes
(С)
Комфортность P
(гПа)
Po
(гПа)
Тmin
(С)
Tmax
(С)
R
(мм)
R24
(мм)
S
(см)
00 17.01 ЮВ 2 н/о слаб. ливневой снег 10/10 600 м
[Cb cap]
-10.9 -12.2 90 -15 -15 1028.9 927.5 -14.6 0.9 113
03 17.01 ЮВ 3 4000 м слаб. ливневой снег 9/9 600 м
[Cb cap]
-11.0 -12.9 86 -17 -17 1031.8 929.3
06 17.01 ЮВ 3 4000 м слаб. ливневой снег 9/9 600 м
[Cb cap]
-9.6 -12.2 81 -15 -15 1031.5 930.4
09 17.01 ЮВ 2 4000 м слаб. ливневой снег 10/10 600 м
[Cb cap]
-9.8 -11.9 85 -14 -14 1032.7 931.4
12 17.01 штиль 0 н/о слаб. ливневой снег 10/10 600 м
[Cb cap]
-11.2 -13.2 85 -11 -11 1035.3 933.2 -8.8 0.6
18 17.01 штиль 0 н/о слаб. ливневой снег 10/10 600 м
[Cb cap]
-14.7 -16.7 85 -15 -15 1038.6 934.8
00 18.01 штиль 0 н/о слаб. ливневой снег 10/10 600 м
[Cb cap]
-14.1 -16.1 85 -14 -14 1039.6 936.0 -14.9 0.7 114
06 18.01 ЮВ 1 4000 м слаб. снег 9/9 600 м
[Sc]
-9.8 -12.9 78 -12 -12 1038.4 936.5
09 18.01 Ю 1 50 км {снег} 8/8 600 м
[Sc]
-9.0 -11.5 82 -11 -11 1037.3 935.8
12 18.01 штиль 0 н/о ясно -15.5 -17.3 86 -16 -16 1041.1 936.0 -7.9 6
15 18.01 штиль 0 н/о ясно -19.4 -22.0 80 -19 -19 1041.4 935.5
18 18.01 штиль 0 н/о 10/0
[Cs]
-21.5 -24.0 80 -22 -22 1041.0 934.4
21 18.01 штиль 0 н/о 10/0
[As trans Cs]
-22.6 -25.8 75 -23 -23 1040.2 933.2
00 19.01 Ю 1 н/о 10/0
[As trans]
-20.9 -23.4 80 -24 -24 1038.4 932.3 -23.0 114
03 19.01 СЗ 1 50 км 10/0
[As trans]
-17.2 -19.1 85 -20 -20 1036.6 932.1
06 19.01 Ю 3 50 км 9/0
[Ac trans Ci fib]
-8.1 -12.7 69 -14 -13 1031.8 931.1
09 19.01 ЮВ 2 50 км 6/0
[Ac trans Ci fib]
-8.6 -12.4 74 -13 -13 1031.5 930.7
12 19.01 ЮВ 1 н/о 10/0
[Cs]
-14.3 -16.3 85 -17 -17 1034.1 930.9 -6.9
15 19.01 штиль 0 н/о 10/0
[Cs]
-17.8 -19.7 85 -18 -18 1035.8 931.1
18 19.01 ЮВ 2 н/о 10/0
[Cs]
-14.9 -16.9 85 -20 -20 1033.7 930.4
21 19.01 штиль 0 н/о 9/0
[Ac trans Cs]
-16.8 -18.1 90 -17 -17 1034.3 930.2
00 20.01 ЮВ 1 н/о 10/0
[Ac trans Cs]
-18.2 -20.1 85 -21 -21 1034.5 929.8 -18.8 114
03 20.01 ЮВ 1 50 км 8/0
[Ci fib]
-17.6 -20.2 80 -20 -20 1034.0 929.5
06 20.01 Ю 4 50 км 9/0
[Ci fib]
-5.8 -15.4 47 -12 -11 1026.9 927.5
09 20.01 Ю 4 50 км 9/0
[Ac trans]
-5.2 -14.3 49 -11 -11 1025.2 926.3
12 20.01 Ю 3 н/о 10/4 600 м
[Sc Ac trans]
-6.0 -13.9 54 -11 -11 1025.1 925.8 -4.9
15 20.01 Ю 3 н/о 9/3 600 м
[Sc Ac trans]
-5.9 -13.7 54 -11 -11 1024.8 925.5
18 20.01 ЮВ 2 н/о 8/0
[Ac trans Ci fib]
-5.1 -15.0 46 -9 -9 1023.7 924.9
21 20.01 штиль 0 н/о 6/0
[Ci fib]
-11.5 -14.3 80 -12 -12 1025.5 924.5
00 21.01 штиль 0 н/о 4/0
[Ci fib]
-15.6 -17.5 85 -16 -16 1027.7 924.7 -15.6 112
03 21.01 Ю 1 20 км 8/0
[Ci sp]
-18.1 -20.6 81 -21 -20 1030.4 925.3 -18.4
06 21.01 ЮВ 3 20 км 6/0
[Ci fib]
-8.1 -13.6 65 -14 -12 1025.3 924.5
09 21.01 ЮВ 1 50 км 6/0
[Ci sp]
-5.4 -13.5 53 -7 -7 1023.1 924.3
12 21.01 штиль 0 н/о 5/0
[Ci fib]
-11.2 -13.2 85 -11 -11 1025.7 924.5 -3.8
15 21.01 штиль 0 н/о 8/0
[Cs]
-13.1 -15.1 85 -13 -13 1025.6 923.7
18 21.01 штиль 0 н/о 9/0
[Cs]
-14.7 -16.7 85 -15 -15 1026.7 924.1
21 21.01 штиль 0 н/о 8/0
[Cs]
-17.7 -19.6 85 -18 -18 1029.2 925.3
00 22.01 штиль 0 н/о 8/0
[Cs]
-20.6 -23.1 80 -21 -21 1031.6 926.3 -20.6 110
03 22.01 Ю 4 4000 м слаб. снег 10/0
[As trans]
-9.0 -12.9 73 -16 -16 1027.9 927.4
06 22.01 Ю 4 4000 м слаб. снег 10/0
[As trans]
-9.0 -11.2 84 -16 -15 1029.6 928.1
09 22.01 ЮВ 3 4000 м слаб. снег 10/0
[As op]
-8.3 -10.0 88 -14 -14 1030.7 929.3
12 22.01 Ю 2 н/о {снег} 9/0
[Ac trans]
-8.4 -9.9 89 -13 -13 1031.5 930.8 -8.3 2
15 22.01 ЮВ 2 н/о слаб. снег 9/9 600 м
[Sc]
-8.8 -10.3 89 -13 -13 1032.9 931.9
18 22.01 ЮВ 2 н/о слаб. снег 10/10 600 м
[Sc]
-10.9 -12.2 90 -15 -15 1035.0 932.9
21 22.01 штиль 0 н/о {снег} 9/9 600 м
[Sc Ac trans]
-10.2 -11.5 90 -11 -11 1035.9 934.1
00 23.01 штиль 0 н/о {снег} 10/10 600 м
[Sc]
-9.6 -10.8 91 -10 -10 1036.1 934.5 -10.9 0.7 113
03 23.01 штиль 0 4000 м слаб. снег 10/10 600 м
[Sc]
-8.4 -9.9 89 -9 -9 1035.9 934.7
06 23.01 штиль 0 50 км {снег} 8/0
[Ac trans Ci fib]
-5.3 -8.6 78 -6 -4 1033.9 934.1
09 23.01 ЮВ 2 50 км ясно -5.8 -12.0 62 -10 -10 1033.6 933.6
12 23.01 штиль 0 н/о ясно -12.6 -16.1 75 -13 -13 1036.6 933.8 -3.9 0.0
15 23.01 штиль 0 н/о ясно -16.9 -18.2 90 -17 -17 1037.5 933.0
18 23.01 штиль 0 н/о ясно -20.8 -23.3 80 -21 -21 1038.3 932.2
21 23.01 штиль 0 н/о ясно -22.8 -25.3 80 -23 -23 1038.6 931.6

 

Местоположение метеостанции Щетинкино (Красноярский край, Россия): широта 54.53 долгота 93.43 высота над уровнем моря 804 м.

В архиве по умолчанию представлена погода в Щетинкино за последнюю неделю. Архивные данные за месяц целиком и за предыдущие месяцы, начиная с января 2011 года, Вы можете получить, выбрав интересующий диапазон дат из раскрывающегося списка и нажав кнопку "Ввод!".


*Определитесь, кто Вы:
робот инопланетянин человек

Внимание! Время в таблицах - всемирное. Для получения местного времени необходимо прибавить поправку, которая равна 7 ч.

Смотрите также архив погоды в соседних городах и на ближайших метеорологических станциях:

Погода в Артемовске (Красноярский край, Россия) (3 км)
Погода в Анастасино (Красноярский край, Россия) (66 км)
Погода в Курагино (Красноярский край, Россия) (85 км)
Погода в Идринском (Красноярский край, Россия) (86 км)
Погода в Казыре (Красноярский край, Россия) (106 км)
Погода в Теси (Красноярский край, Россия) (109 км)
Погода в Каратузском (Красноярский край, Россия) (110 км)
Погода в Агинском (Красноярский край, Россия) (123 км)
Погода в Лебяжьем (Красноярский край, Россия) (125 км)
Погода в Шалинском (Красноярский край, Россия) (134 км)

Пояснения к столбцам:

Ветер - указаны скорость ветра в м/с - средняя за 10 мин, порывы в срок и между сроками (в фигурных скобках) и направление, откуда дует ветер: С - северный, СВ - северо-восточный, В - восточный, ЮВ - юго-восточный, Ю - южный, ЮЗ - юго-западный, З - западный, СЗ - северо-западный.
Видимость - горизонтальная дальность видимости в метрах или километрах. При видимости от 1 до 10 км при отсутствии осадков обычно наблюдается дымка, при ухудшении видимости до 1 км и менее - туман. В сухую погоду видимость может ухудшаться дымом, пылью или мглою.
Явления - указаны атмосферные явления, наблюдавшиеся в срок или в последний час перед сроком; фигурными скобками обозначены явления, наблюдавшиеся между сроками (за 1-3 часа до срока); квадратными скобками обозначены град или гололедные отложения с указанием их диаметра в мм.
Облачность - указаны через наклонную черту общая и нижняя облачность в баллах и высота нижней границы облаков в метрах; квадратными скобками обозначены формы облаков: Ci - перистые, Cs - перисто-слоистые, Cc - перисто-кучевые, Ac - высококучевые, As - высокослоистые, Sc - слоисто-кучевые, Ns - слоисто-дождевые, Cu - кучевые, Cb - кучево-дождевые. Подробнее классификацию облаков см. в Атласе облаков (PDF).
T - Температура воздуха - температура, измеренная на высоте 2 м над землей.
Td - Температура точки росы - температура, при понижении до которой содержащийся в воздухе водяной пар достигнет насыщения.
f - Относительная влажность воздуха - влажноcть воздуха, измеренная на высоте 2 м над землей.
Te - Эффективная температура - температура, которую ощущает одетый по сезону человек в тени. Характеристика душности погоды. При расчете учитывается влияние влажности воздуха и скорости ветра на теплоощущения человека.
Tes - Эффективная температура на солнце - температура, которую ощущает человек, с поправкой на солнечный нагрев. Характеристика знойности погоды. Зависит от высоты солнца над горизонтом, облачности и скорости ветра. Ночью, в пасмурную погоду, а также при ветре 12 м/с и более поправка равна нулю.
P - Атмосферное давление - приведенное к уровню моря атмосферное давление.
Po - Атмосферное давление - измеренное на уровне метеостанции атмосферное давление.
Tmin - Минимальная температура - минимум температуры воздуха на высоте 2 м над землей.
Tmax - Максимальная температура - максимум температуры воздуха на высоте 2 м над землей.
R - Количество осадков - Количество выпавших осадков за период времени, мм. При наведении курсора мыши на число - период времени, за который выпало указанное количество осадков.
R24 - Количество осадков - Количество выпавших осадков за 24 часа, мм.
S - Снежный покров - Высота снежного покрова, см. При наведении курсора мыши на число - состояние снежного покрова и степень покрытия местности в баллах.